Lexington Weather

Lexington, Massachusetts, USA

43°F
9/19/2020 7:39am 
  • Lexington Conditions: Clear
  • Temperature: 43.0°F / 6.1°CColder 0.2°F than last hour.
  • Dew Point: 35.2°FDecreased 0.6°Fsince last hour.
  • Relative Humidity: 74%Decreased 1.0% since last hour.
  • Wind: Wind from NNE NNE Calm, 10-min avg: 1 mph, gust: 2 mph
  • Barometer: 30.23 inRising 0.02  inHg/hr Rising Slowly
  • Visibility: 10 miles
  • Rain Today: 0.00 in
  •   
Southeast Middlesex County - Special Weather Statement
 - SEE ALL NEARBY ALERTS -

Regional Weather Roundup
for Boston / Norton, MA

        
000
ASUS41 KBOX 160604
RWRBOX

REGIONAL WEATHER ROUNDUP
NATIONAL WEATHER SERVICE BOSTON/NORTON MA
200 AM EDT WED SEP 16 2020

NOTE:  "FAIR" INDICATES FEW OR NO CLOUDS BELOW 12,000 FEET WITH NO 
SIGNIFICANT WEATHER AND/OR OBSTRUCTIONS TO VISIBILITY.

MAZALL-160700-
EASTERN MASSACHUSETTS
  
CITY           SKY/WX    TMP DP  RH WIND       PRES   REMARKS
BOSTON         CLEAR     52  46  80 SW8       30.26F                  
6HR MIN TEMP:  52; 6HR MAX TEMP:  58;                                

BEVERLY        CLEAR     50  46  86 S3        30.24F                  
LAWRENCE       CLEAR     50  45  83 S3        30.26S                  
BEDFORD        CLEAR     47  43  86 CALM      30.23F                  
BLUE HILL        N/A     50  45  83 SW10      30.25F                  
NORWOOD        PTCLDY    44  41  89 CALM      30.26S                  
MARSHFIELD       N/A     52  50  93 SW6       30.26F                  
PLYMOUTH       CLEAR     46  44  93 CALM      30.27F                  
TAUNTON        CLEAR     43  41  93 CALM      30.26F                  
NEW BEDFORD    CLEAR     45  44  97 CALM      30.26F                  
$$

MAZALL-160700-
CAPE COD AND THE ISLANDS
  
CITY           SKY/WX    TMP DP  RH WIND       PRES   REMARKS
FALMOUTH       CLEAR     46  43  87 CALM      30.28F                  
HYANNIS        PTCLDY    45  43  93 CALM      30.26F                  
CHATHAM        PTCLDY    53  48  83 CALM      30.29F                  
PROVINCETOWN   CLEAR     57  51  80 SW12      30.27F                  
NANTUCKET      CLEAR     50  46  86 CALM      30.29F                  
MARTHAS VNYRD  CLEAR     39  37  92 CALM      30.28F                  
$$
 
MAZALL-160700-
CENTRAL AND WESTERN MASSACHUSETTS
  
CITY           SKY/WX    TMP DP  RH WIND       PRES   REMARKS
WORCESTER      CLEAR     50  42  74 SW10      30.25F                  
6HR MIN TEMP:  49; 6HR MAX TEMP:  53;                                

FITCHBURG      CLEAR     44  40  85 CALM      30.24F                  
ORANGE         CLEAR     42  41  96 CALM      30.26F                  
SPRINGFIELD    NOT AVBL                                               
WESTFIELD      CLEAR     45  44  97 CALM      30.25F                  
NORTH ADAMS    CLEAR     45  42  89 CALM      30.24F                  
PITTSFIELD     CLEAR     43  41  93 CALM      30.23F                  
$$
 
RIZALL-160700-
RHODE ISLAND
  
CITY           SKY/WX    TMP DP  RH WIND       PRES   REMARKS
PROVIDENCE     CLEAR     52  48  86 W3        30.27F                  
6HR MIN TEMP:  50; 6HR MAX TEMP:  59;                                

NEWPORT        CLEAR     54  49  83 CALM      30.27F                  
BLOCK ISLAND   CLEAR     53  47  79 SW7       30.28F                  
SMITHFIELD     CLEAR     49  49 100 SW5       30.27F                  
WESTERLY       CLEAR     46  43  89 CALM      30.28F                  
$$
 
CTZALL-160700-
CONNECTICUT
  
CITY           SKY/WX    TMP DP  RH WIND       PRES   REMARKS
BRADLEY INTL   MOCLDY    49  44  83 S5        30.26S                  
6HR MIN TEMP:  48; 6HR MAX TEMP:  58;                                

HARTFORD       CLEAR     52  47  83 S6        30.26S                  
BRIDGEPORT     CLEAR     56  49  77 N5        30.27F                  
DANBURY        CLEAR     45  44  97 CALM      30.27F                  
GROTON         CLEAR     50  48  93 NE3       30.27F                  
NEW HAVEN      CLEAR     53  50  89 CALM      30.27F                  
CHESTER        NOT AVBL                                               
MERIDEN        CLEAR     46  43  89 CALM      30.26F                  
WILLIMANTIC    CLEAR     44  42  93 CALM      30.27F                  
OXFORD         CLEAR     48  47  96 CALM      30.27F                  
$$

MEZ002-015-021-024-NHZ003-005-008-011-012-014-VTZ005-008-160700-
NORTHERN NEW ENGLAND
  
CITY           SKY/WX    TMP DP  RH WIND       PRES   REMARKS
PORTLAND ME    PTCLDY    49  45  86 CALM      30.22F                  
6HR MIN TEMP:  49; 6HR MAX TEMP:  57;                                

BANGOR ME      CLOUDY    53  45  74 S5        30.21F                  
CONCORD NH     CLEAR     40  38  93 CALM      30.23F                  
MANCHESTER NH  CLEAR     50  43  77 S3        30.22F                  
NASHUA NH      CLEAR     48  46  93 E3        30.24F                  
PORTSMOUTH NH  CLEAR     48  44  86 CALM      30.21                   
JAFFREY NH     CLEAR     42  40  92 CALM      30.24F                  
KEENE NH       CLEAR     39  39 100 CALM      30.25S FOG              
BURLINGTON VT  PTCLDY    55  41  59 S8        30.14F                  
MT. WASHINGTON NOT AVBL                                               
$$

NYZ052-076-160700-
EASTERN NEW YORK
  
CITY           SKY/WX    TMP DP  RH WIND       PRES   REMARKS
ALBANY         MOCLDY    48  44  86 S3        30.22F                  
6HR MIN TEMP:  44; 6HR MAX TEMP:  53;                                

NEW YORK CITY  MOCLDY    62  48  60 S6        30.26F                  
6HR MIN TEMP:  62; 6HR MAX TEMP:  64;                                

$$
 
ANZALL-160700-
MARINE OBSERVATIONS
  
STATION/POSITION TIME  TEMP    WIND        PRES    VSBY  WAVE
                       AIR SEA DIR/SP/G                  HT/PER
                 (UTC) (F)     (DEG/KT/KT) (MB)    (MI)  (FT/S)
BOSTON BUOY      0550   58 63  200/ 14/ 16 1023.4F         3/12
BUZZARDS BAY     0500          230/  9/ 11 1026.8R
NANTUCKET SOUND  0540      70  210/  8/ 10   N/A
MASS BAY-STELLWA 0504   59     250/ 14/ 17 1022.2F  1 7/8  3/ 4
ISLE OF SHOALS   0500   58     210/ 14/ 16 1023.4F
S OF BLOCK IS    0526      70                N/A           3/ 9
$$

......................KEY.........................
  SKY/WX - SKY CONDITION/PRESENT WEATHER
  TMP    - TEMPERATURE IN FAHRENHEIT
  DWPT   - DEWPOINT IN FAHRENHEIT
  RH     - RELATIVE HUMIDITY IN PERCENT
  WIND   - DIRECTION AND SPEED IN MPH
  PRES   - MEAN SEA LEVEL PRESSURE IN INCHES OF HG
  WCI    - WIND CHILL INDEX
  VSB    - VISIBILITY IN MILES
  HX     - HEAT INDEX
  TC     - TEMPERATURE IN CELSIUS
  VRB    - VARIABLE WIND DIRECTION
  N/A    - NOT AVAILABLE
  
      

Other recent Regional Weather Roundups

Sat Sep 19, 7:04am

Sat Sep 19, 6:04am

Sat Sep 19, 5:04am

Sat Sep 19, 4:04am

Sat Sep 19, 3:04am

Sat Sep 19, 2:04am

Sat Sep 19, 1:04am

Sat Sep 19, 12:04am

Fri Sep 18, 11:05pm

Fri Sep 18, 10:04pm

Fri Sep 18, 9:04pm

Fri Sep 18, 8:04pm

Fri Sep 18, 7:04pm

Fri Sep 18, 6:04pm

Fri Sep 18, 5:05pm

Fri Sep 18, 4:04pm

Fri Sep 18, 3:05pm

Fri Sep 18, 2:04pm

Fri Sep 18, 1:04pm

Fri Sep 18, 12:04pm

Fri Sep 18, 11:05am

Fri Sep 18, 10:05am

Fri Sep 18, 9:04am

Fri Sep 18, 8:04am

Fri Sep 18, 7:04am

Fri Sep 18, 6:04am

Fri Sep 18, 5:04am

Fri Sep 18, 4:04am

Fri Sep 18, 3:04am

Fri Sep 18, 2:04am

Fri Sep 18, 1:04am

Fri Sep 18, 12:04am

Thu Sep 17, 11:05pm

Thu Sep 17, 10:04pm

Thu Sep 17, 9:04pm

Thu Sep 17, 8:05pm

Thu Sep 17, 7:04pm

Thu Sep 17, 6:04pm

Thu Sep 17, 5:04pm

Thu Sep 17, 4:04pm

Thu Sep 17, 3:05pm

Thu Sep 17, 2:04pm

Thu Sep 17, 1:04pm

Thu Sep 17, 12:04pm

Thu Sep 17, 11:04am

Thu Sep 17, 10:04am

Thu Sep 17, 9:04am

Thu Sep 17, 8:04am

Thu Sep 17, 7:04am

Thu Sep 17, 6:04am

Thu Sep 17, 5:04am

Thu Sep 17, 4:04am

Thu Sep 17, 3:04am

Thu Sep 17, 2:05am

Thu Sep 17, 1:05am

Thu Sep 17, 12:04am

Wed Sep 16, 11:04pm

Wed Sep 16, 10:04pm

Wed Sep 16, 9:04pm

Wed Sep 16, 8:05pm

Wed Sep 16, 7:04pm

Wed Sep 16, 6:04pm

Wed Sep 16, 5:04pm

Wed Sep 16, 4:04pm

Wed Sep 16, 3:04pm

Wed Sep 16, 2:04pm

Wed Sep 16, 1:04pm

Wed Sep 16, 12:04pm

Wed Sep 16, 11:04am

Wed Sep 16, 10:04am

Wed Sep 16, 9:04am

Wed Sep 16, 8:04am

Wed Sep 16, 7:04am

Wed Sep 16, 6:04am

Wed Sep 16, 5:04am

Wed Sep 16, 4:04am

Wed Sep 16, 3:04am

Wed Sep 16, 1:04am

Wed Sep 16, 12:05am

Tue Sep 15, 11:04pm

Tue Sep 15, 10:04pm

Tue Sep 15, 9:04pm

Tue Sep 15, 8:04pm

Tue Sep 15, 7:04pm

Tue Sep 15, 6:04pm

Tue Sep 15, 5:04pm

Tue Sep 15, 4:05pm

Tue Sep 15, 3:04pm

Tue Sep 15, 2:04pm

Tue Sep 15, 1:04pm

Tue Sep 15, 12:04pm

Tue Sep 15, 11:04am

Tue Sep 15, 10:04am

Tue Sep 15, 9:04am

Tue Sep 15, 8:04am

Tue Sep 15, 7:04am

Tue Sep 15, 6:04am

Tue Sep 15, 5:04am

Tue Sep 15, 4:04am

Tue Sep 15, 3:04am

Tue Sep 15, 2:04am

Tue Sep 15, 1:04am

Tue Sep 15, 12:05am

Mon Sep 14, 11:04pm

Mon Sep 14, 10:04pm

Mon Sep 14, 9:04pm

Mon Sep 14, 8:04pm

Mon Sep 14, 7:04pm

Mon Sep 14, 6:04pm

Mon Sep 14, 5:04pm

Mon Sep 14, 4:05pm

Mon Sep 14, 3:04pm

Mon Sep 14, 2:05pm

Mon Sep 14, 1:04pm

Mon Sep 14, 12:04pm

Mon Sep 14, 11:04am

Mon Sep 14, 10:05am

Mon Sep 14, 9:04am

Mon Sep 14, 8:04am

Mon Sep 14, 7:04am

Mon Sep 14, 6:04am

Mon Sep 14, 5:04am

Mon Sep 14, 4:04am

Mon Sep 14, 3:04am

Mon Sep 14, 2:04am

Mon Sep 14, 1:04am

Mon Sep 14, 12:04am

Sun Sep 13, 11:05pm

Sun Sep 13, 10:04pm

Sun Sep 13, 9:04pm

Sun Sep 13, 8:04pm

Sun Sep 13, 7:05pm

Sun Sep 13, 6:05pm

Sun Sep 13, 5:05pm

Sun Sep 13, 4:04pm

Sun Sep 13, 3:04pm

Sun Sep 13, 2:04pm

Sun Sep 13, 1:04pm

Sun Sep 13, 12:04pm

Sun Sep 13, 11:05am

Sun Sep 13, 10:04am

Sun Sep 13, 9:04am

Sun Sep 13, 8:04am

Sun Sep 13, 7:04am

Sun Sep 13, 6:04am

Sun Sep 13, 5:04am

Sun Sep 13, 4:04am

Sun Sep 13, 3:04am

Sun Sep 13, 2:04am

Sun Sep 13, 1:04am

Sun Sep 13, 12:04am

Sat Sep 12, 11:04pm

Sat Sep 12, 10:04pm

Sat Sep 12, 9:04pm

Sat Sep 12, 8:04pm

Sat Sep 12, 7:05pm

Sat Sep 12, 6:04pm

Sat Sep 12, 5:04pm

Sat Sep 12, 4:05pm

Sat Sep 12, 3:04pm

Sat Sep 12, 2:04pm

Sat Sep 12, 1:05pm

Sat Sep 12, 12:04pm

Sat Sep 12, 11:04am

Sat Sep 12, 10:04am

Sat Sep 12, 9:04am

Sat Sep 12, 8:04am

Meta data:

ID: e01664b4-80b5-45fe-ab2b-2619a394d1fa
Link: https://api.weather.gov/products/e01664b4-80b5-45fe-ab2b-2619a394d1fa